Weather Roundup
Issued by NWS Springfield, MO

Home | Current Version | Previous Version | Text Only | Print | Product List | Glossary On
Versions: 1 2 3 4 5 6 7 8 9 10 11 12 13 14 15 16 17 18 19 20 21 22 23 24 25 26 27 28 29 30 31 32 33 34 35 36 37 38 39 40 41 42 43 44 45 46 47 48 49 50
000
NZUS99 KSGF 292059
HRRSGF

HOURLY WEATHER
NATIONAL WEATHER SERVICE SPRINGFIELD MO
400 PM CDT FRI AUG 29 2014

......SGF CWA......

CITY           SKY/WX    TMP DP  RH WIND       PRES   REMARKS
SPRINGFIELD    PTSUNNY   86  62  44 W12       29.88R
JOPLIN         MOSUNNY   87  62  43 SW14G22   29.87F
WEST PLAINS    MOSUNNY   86  65  49 S10G20    29.92F
ROLLA          LGT RAIN  75  69  81 SW7       29.87R
OSAGE BEACH    CLOUDY    73  70  88 S6        29.88F
BRANSON        CLOUDY    84  68  58 S9G17     29.91F

......SURROUNDING SGF CWA......

CITY           SKY/WX    TMP DP  RH WIND       PRES   REMARKS
CHANUTE        MOSUNNY   87  63  44 SW12G22   29.84F
PARSONS        MOSUNNY   89  64  43 SW12      29.85F HX  90
COFFEYVILLE    SUNNY     88  62  41 W14       29.85F
EMPORIA        MOSUNNY   88  62  41 SW16G23   29.81F
SILOAM SPRINGS   N/A     82  64  54 SW6       29.92F
HARRISON AR    LGT RAIN  72  68  87 S8        29.93F
NEAR YELLVILLE CLOUDY    72  64  78 SW6       29.92F

......KANSAS AND MISSOURI......

CITY           SKY/WX    TMP DP  RH WIND       PRES   REMARKS
KANSAS CTY INT PTSUNNY   80  68  66 SW13      29.82F
DOWNTOWN KC    MOSUNNY   83  67  58 S12       29.81F
COLUMBIA       CLOUDY    77  72  84 SE5       29.86F
SEDALIA        MOSUNNY   84  68  58 SW10G20   29.86F
ST JOSEPH      MOSUNNY   80  70  71 SW10      29.80F
ST LOUIS       MOSUNNY   92  65  40 S14       29.85F HX  94
SPIRIT OF STL  MOSUNNY   89  66  46 SE10      29.83F HX  91
KIRKSVILLE     CLOUDY    73  69  87 S8        29.84F
WICHITA        PTSUNNY   87  64  46 SW14      29.83F
TOPEKA         SUNNY     87  66  49 S14G20    29.79F
OLATHE         MOSUNNY   80  67  64 SW10      29.82F

......TENNESSEE......

CITY           SKY/WX    TMP DP  RH WIND       PRES   REMARKS
MEMPHIS        PTSUNNY   91  70  49 S8        29.93F HX  96
NASHVILLE      CLOUDY    92  60  34 S9        30.00F HX  91

......ARKANSAS.......

CITY           SKY/WX    TMP DP  RH WIND       PRES   REMARKS
FAYETTEVILLE   LGT RAIN  74  71  91 S8        29.93F
FT SMITH       CLOUDY    80  69  69 SW7       29.91S
LITTLE ROCK    PTSUNNY   90  70  51 S10       29.89F HX  95

......OKLAHOMA.......

CITY           SKY/WX    TMP DP  RH WIND       PRES   REMARKS
TULSA          MOSUNNY   91  65  41 S10G16    29.83F HX  93
PONCA CITY     PTSUNNY   81  67  62 SW12G20   29.85F
MCALESTER      PTSUNNY   86  70  58 VRB6      29.88F HX  90
OKLAHOMA CITY  PTSUNNY   82  66  58 S13       29.88F

......IOWA............

CITY           SKY/WX    TMP DP  RH WIND       PRES   REMARKS
DES MOINES     TSTM      77  71  82 S8        29.79R
QUAD CITIES    SUNNY     86  72  62 SE12      29.82F HX  92

......ILLINOIS........

CITY           SKY/WX    TMP DP  RH WIND       PRES   REMARKS
QUINCY         MOSUNNY   86  65  49 S10       29.82F
CHICAGO        PTSUNNY   86  70  58 S16       29.89F HX  90



USA.gov is the U.S. government's official web portal to all federal, state and local government web resources and services.